Change the Weather History Date:

Thursday, May 23, 2013

  Actual Average Record
Temperature  
Mean Temperature 42 °F -  
Max Temperature 48 °F 68 °F 82 °F (2012)
Min Temperature 37 °F 49 °F 37 °F (1998)
Degree Days  
Heating Degree Days 22    
Moisture  
Dew Point 40 °F    
Average Humidity 90    
Maximum Humidity 100    
Minimum Humidity 70    
Precipitation  
Precipitation 0.20 in - - ()
Sea Level Pressure  
Sea Level Pressure 29.80 in    
Wind  
Wind Speed 5 mph ()    
Max Wind Speed 17 mph    
Max Gust Speed 23 mph    
Visibility 5.5 miles    
Events Fog , Rain , Thunderstorm    
Averages and records for this station are not official NWS values.
T = Trace of Precipitation, MM = Missing Value Source: Averaged Metar Reports

Daily Weather History Graph

Daily Weather History Graph

Search for Another Location

Airport or City:

Trip Planner

Search our weather history database for the weather conditions in past years. The results will help you decide how hot, cold, wet, or windy it might be!

Date:

Astronomy

May. 23, 2013 Rise Set
Actual Time 5:36 AM CEST 9:35 PM CEST
Civil Twilight 4:52 AM CEST 10:18 PM CEST
Nautical Twilight 3:51 AM CEST 11:20 PM CEST
Astronomical Twilight 2:07 AM CEST 1:02 AM CEST
Moon 7:38 PM CEST (5/23) 4:25 AM CEST (5/23)
Length of Visible Light 17h 25m
Length of Day
15h 59m
Waxing Gibbous, 95% of the Moon is Illuminated
May 23
Waxing Gibbous
May 25
Full
May 31
Last Quarter
Jun 8
New
Jun 16
First Quarter

Hourly Weather History & Observations

Time (CEST) Temp. Windchill Dew Point Humidity Pressure Visibility Wind Dir Wind Speed Gust Speed Precip Events Conditions
12:04 AM 46.4 °F 42.9 °F 46.4 °F 100% 29.92 in 6.2 mi WSW 6.9 mph - N/A   Overcast
12:09 AM 46.4 °F 42.9 °F 46.4 °F 100% 29.92 in 6.2 mi WSW 6.9 mph - N/A   Mostly Cloudy
12:25 AM 46.4 °F 42.4 °F 46.4 °F 100% 29.92 in 6.2 mi WSW 8.1 mph - N/A Rain Light Rain
12:55 AM 46.4 °F 42.9 °F 44.6 °F 93% 29.92 in 6.2 mi WSW 6.9 mph - N/A   Mostly Cloudy
1:25 AM 46.4 °F 42.4 °F 44.6 °F 93% 29.89 in 6.2 mi SW 8.1 mph - N/A   Overcast
1:55 AM 46.4 °F 43.5 °F 44.6 °F 93% 29.89 in 6.2 mi SW 5.8 mph - N/A   Overcast
2:00 AM 45 °F - 44 °F 93% 29.88 in 22 mi SSW 6.7 mph - - Rain Rain
2:25 AM 44.6 °F 42.2 °F 42.8 °F 93% 29.86 in 6.2 mi SW 4.6 mph - N/A   Overcast
2:55 AM 44.6 °F - 42.8 °F 93% 29.86 in 6.2 mi SSW 2.3 mph - N/A   Mostly Cloudy
3:25 AM 42.8 °F - 41.0 °F 93% 29.83 in 6.2 mi South 1.2 mph - N/A   Scattered Clouds
3:41 AM 42.8 °F - 41.0 °F 93% 29.83 in 1.0 mi NW 1.2 mph - N/A   Mist
3:43 AM 41.0 °F - 41.0 °F 100% 29.83 in 6.2 mi NNW 1.2 mph - N/A   Unknown
3:49 AM 41.0 °F - 39.2 °F 93% 29.83 in 3.7 mi North 1.2 mph - N/A   Partly Cloudy
3:55 AM 41.0 °F - 41.0 °F 100% 29.83 in 3.1 mi NE 1.2 mph - N/A   Mostly Cloudy
3:57 AM 41.0 °F - 39.2 °F 93% 29.83 in 2.8 mi NE 1.2 mph - N/A   Mostly Cloudy
4:03 AM 41.0 °F - 39.2 °F 93% 29.83 in 1.6 mi NE 1.2 mph - N/A   Mostly Cloudy
4:16 AM 39.2 °F - 39.2 °F 100% 29.83 in 1.4 mi NNE 1.2 mph - N/A   Mostly Cloudy
4:25 AM 39.2 °F - 39.2 °F 100% 29.83 in 1.1 mi NE 2.3 mph - N/A   Mist
4:29 AM 39.2 °F - 39.2 °F 100% 29.80 in 0.3 mi NNE 2.3 mph - N/A Fog Fog
4:44 AM 37.4 °F - 37.4 °F 100% 29.80 in 0.3 mi NNE 2.3 mph - N/A Fog Fog
4:48 AM 39.2 °F - 39.2 °F 100% 29.80 in 0.6 mi NNE 1.2 mph - N/A Fog Fog
4:55 AM 37.4 °F - 37.4 °F 100% 29.80 in 0.4 mi Calm Calm - N/A Fog Fog
4:59 AM 39.2 °F - 39.2 °F 100% 29.80 in 1.1 mi East 1.2 mph - N/A   Mostly Cloudy
5:00 AM 39 °F - 39 °F 100% 29.80 in 0 mi East 2.2 mph - - Fog Fog
5:10 AM 41.0 °F 39.0 °F 41.0 °F 100% 29.80 in - East 3.5 mph - N/A   Overcast
5:17 AM 39.2 °F - 39.2 °F 100% 29.80 in 1.7 mi NE 2.3 mph - N/A   Mostly Cloudy
5:21 AM 41.0 °F - 41.0 °F 100% 29.80 in 3.7 mi North 2.3 mph - N/A   Overcast
5:25 AM 41.0 °F - 41.0 °F 100% 29.80 in 4.3 mi NW 2.3 mph - N/A   Overcast
5:29 AM 41.0 °F - 41.0 °F 100% 29.80 in 4.3 mi WNW 2.3 mph - N/A   Overcast
5:42 AM 41.0 °F - 41.0 °F 100% 29.80 in 3.7 mi West 2.3 mph - N/A   Mostly Cloudy
5:55 AM 42.8 °F 41.1 °F 41.0 °F 93% 29.80 in 4.3 mi NNW 3.5 mph - N/A Rain Light Rain
5:58 AM 42.8 °F 41.1 °F 42.8 °F 100% 29.80 in 3.7 mi NW 3.5 mph - N/A Rain Rain
6:05 AM 42.8 °F 41.1 °F 42.8 °F 100% 29.80 in 3.7 mi NW 3.5 mph - N/A Rain Rain
6:13 AM 42.8 °F 38.0 °F 42.8 °F 100% 29.80 in 3.7 mi NNW 8.1 mph - N/A Rain Rain
6:17 AM 42.8 °F 37.0 °F 42.8 °F 100% 29.80 in 3.7 mi NNW 10.4 mph - N/A Rain Rain
6:25 AM 42.8 °F 37.0 °F 42.8 °F 100% 29.80 in 6.2 mi North 10.4 mph - N/A Rain Light Rain
6:29 AM 42.8 °F 37.5 °F 42.8 °F 100% 29.80 in 6.2 mi North 9.2 mph - N/A Rain Light Rain
6:36 AM 42.8 °F 37.0 °F 41.0 °F 93% 29.80 in 6.2 mi North 10.4 mph - N/A Rain Light Rain
6:40 AM 42.8 °F 36.2 °F 39.2 °F 87% 29.80 in 6.2 mi North 12.7 mph - N/A Rain Rain
6:41 AM 41.0 °F 33.9 °F 39.2 °F 93% 29.77 in 6.2 mi North 12.7 mph - N/A Rain Rain
6:45 AM 41.0 °F 35.2 °F 39.2 °F 93% 29.77 in 3.1 mi NNE 9.2 mph - N/A Rain Rain Showers
6:55 AM 41.0 °F 35.8 °F 39.2 °F 93% 29.77 in 6.2 mi NE 8.1 mph - N/A Rain Rain Showers
7:00 AM 41.0 °F 35.8 °F 39.2 °F 93% 29.77 in 6.2 mi NE 8.1 mph - N/A Rain Light Rain
7:04 AM 41.0 °F 35.2 °F 39.2 °F 93% 29.77 in 6.2 mi NE 9.2 mph - N/A Rain Light Rain Showers
7:10 AM 41.0 °F 35.2 °F 39.2 °F 93% 29.77 in 6.2 mi NE 9.2 mph - N/A Rain Light Rain Showers
7:18 AM 41.0 °F 35.8 °F 39.2 °F 93% 29.77 in 6.2 mi North 8.1 mph - N/A Rain Light Rain
7:21 AM 41.0 °F 35.8 °F 39.2 °F 93% 29.77 in 6.2 mi North 8.1 mph - N/A Rain Light Rain
7:25 AM 41.0 °F 35.8 °F 39.2 °F 93% 29.77 in 6.2 mi North 8.1 mph - N/A Rain Light Rain
7:38 AM 41.0 °F 36.4 °F 39.2 °F 93% 29.77 in 6.2 mi North 6.9 mph - N/A   Light Drizzle
7:55 AM 41.0 °F 36.4 °F 39.2 °F 93% 29.77 in 6.2 mi North 6.9 mph - N/A   Overcast
8:00 AM 41 °F - 40 °F 92% 29.80 in 13 mi NNW 6.7 mph - - Rain Light Drizzle
8:11 AM 41.0 °F 37.1 °F 39.2 °F 93% 29.77 in 6.2 mi North 5.8 mph - N/A   Drizzle
8:25 AM 41.0 °F 37.1 °F 39.2 °F 93% 29.77 in 6.2 mi North 5.8 mph - N/A Rain Heavy Drizzle
8:55 AM 41.0 °F 39.0 °F 41.0 °F 100% 29.77 in 6.2 mi NW 3.5 mph - N/A Rain Light Rain
9:04 AM 41.0 °F 39.0 °F 39.2 °F 93% 29.77 in 6.2 mi NNW 3.5 mph - N/A   Light Drizzle
9:21 AM 42.8 °F - 39.2 °F 87% 29.77 in 6.2 mi NW 2.3 mph - N/A   Light Drizzle
9:25 AM 42.8 °F - 39.2 °F 87% 29.77 in 6.2 mi NNW 2.3 mph - N/A   Light Drizzle
9:45 AM 44.6 °F 43.1 °F 41.0 °F 87% 29.77 in 6.2 mi NW 3.5 mph - N/A   Overcast
9:48 AM 42.8 °F 41.1 °F 41.0 °F 93% 29.77 in 6.2 mi NW 3.5 mph - N/A   Overcast
9:49 AM 42.8 °F - 39.2 °F 87% 29.77 in 6.2 mi NW 2.3 mph - N/A   Overcast
9:55 AM 44.6 °F 43.1 °F 41.0 °F 87% 29.77 in 6.2 mi WNW 3.5 mph - N/A   Mostly Cloudy
10:10 AM 42.8 °F 40.1 °F 39.2 °F 87% 29.77 in 6.2 mi WNW 4.6 mph - N/A   Overcast
10:15 AM 42.8 °F 40.1 °F 41.0 °F 93% 29.77 in 6.2 mi NW 4.6 mph - N/A   Overcast
10:19 AM 42.8 °F 40.1 °F 39.2 °F 87% 29.77 in 6.2 mi NNW 4.6 mph - N/A   Overcast
10:25 AM 42.8 °F 40.1 °F 41.0 °F 93% 29.77 in 6.2 mi NNW 4.6 mph - N/A   Overcast
10:35 AM 44.6 °F 41.4 °F 41.0 °F 87% 29.77 in 6.2 mi NW 5.8 mph - N/A   Mostly Cloudy
10:42 AM 44.6 °F 41.4 °F 41.0 °F 87% 29.77 in 6.2 mi NW 5.8 mph - N/A   Mostly Cloudy
10:43 AM 44.6 °F 41.4 °F 39.2 °F 81% 29.77 in 6.2 mi NW 5.8 mph - N/A   Mostly Cloudy
10:55 AM 44.6 °F 40.7 °F 39.2 °F 81% 29.77 in 6.2 mi NW 6.9 mph - N/A   Mostly Cloudy
11:00 AM 45 °F - 39 °F 72% 29.79 in 28 mi NW 6.7 mph - -   Partly Cloudy
11:01 AM 44.6 °F 40.7 °F 39.2 °F 81% 29.77 in 6.2 mi NW 6.9 mph - N/A   Overcast
11:06 AM 44.6 °F 41.4 °F 39.2 °F 81% 29.77 in 6.2 mi NNW 5.8 mph - N/A   Mostly Cloudy
11:10 AM 44.6 °F 41.4 °F 39.2 °F 81% 29.77 in 6.2 mi NNW 5.8 mph - N/A   Overcast
11:17 AM 44.6 °F 40.7 °F 39.2 °F 81% 29.77 in 6.2 mi NNW 6.9 mph - N/A   Overcast
11:25 AM 44.6 °F 40.7 °F 39.2 °F 81% 29.77 in 6.2 mi NNW 6.9 mph - N/A   Overcast
11:33 AM 44.6 °F 40.7 °F 39.2 °F 81% 29.77 in 6.2 mi NNW 6.9 mph - N/A   Mostly Cloudy
11:42 AM 46.4 °F 41.5 °F 39.2 °F 76% 29.77 in 6.2 mi NNW 10.4 mph - N/A   Mostly Cloudy
11:50 AM 44.6 °F 39.7 °F 39.2 °F 81% 29.77 in 6.2 mi NNW 9.2 mph - N/A   Mostly Cloudy
11:55 AM 44.6 °F 39.7 °F 39.2 °F 81% 29.77 in 6.2 mi North 9.2 mph - N/A   Overcast
12:20 PM 41.0 °F 34.3 °F 39.2 °F 93% 29.77 in 6.2 mi NNW 11.5 mph - N/A   Drizzle
12:25 PM 42.8 °F 37.0 °F 39.2 °F 87% 29.77 in 6.2 mi NNW 10.4 mph - N/A Rain Light Rain
12:29 PM 42.8 °F 37.5 °F 39.2 °F 87% 29.77 in 6.2 mi NNW 9.2 mph - N/A Rain Heavy Drizzle
12:38 PM 42.8 °F 39.3 °F 39.2 °F 87% 29.77 in 6.2 mi NNW 5.8 mph - N/A Rain Drizzle
12:55 PM 44.6 °F 41.4 °F 41.0 °F 87% 29.77 in 6.2 mi NW 5.8 mph - N/A   Overcast
1:25 PM 46.4 °F 44.3 °F 41.0 °F 81% 29.77 in 6.2 mi NW 4.6 mph - N/A   Mostly Cloudy
1:32 PM 46.4 °F 44.3 °F 41.0 °F 81% 29.77 in 6.2 mi WNW 4.6 mph - N/A   Mostly Cloudy
1:36 PM 46.4 °F 43.5 °F 41.0 °F 81% 29.77 in 6.2 mi West 5.8 mph - N/A   Mostly Cloudy
1:38 PM 48.2 °F - 41.0 °F 76% 29.77 in 6.2 mi West 6.9 mph - N/A   Mostly Cloudy
1:45 PM 44.6 °F 39.2 °F 39.2 °F 81% 29.77 in 6.2 mi West 10.4 mph 23.0 mph N/A   Overcast
1:55 PM 37.4 °F 27.8 °F 35.6 °F 93% 29.77 in 6.2 mi North 17.3 mph - N/A Rain Rain
1:59 PM 37.4 °F 29.3 °F 35.6 °F 93% 29.77 in - North 12.7 mph - N/A Rain Heavy Rain Showers
2:00 PM 38 °F - 36 °F 90% 29.80 in 3 mi North 11.2 mph - - Rain Rain Showers
2:02 PM 37.4 °F 29.8 °F 35.6 °F 93% 29.77 in - North 11.5 mph - N/A Rain Heavy Rain Showers
2:07 PM 37.4 °F 30.8 °F 37.4 °F 100% 29.77 in 3.1 mi North 9.2 mph - N/A Rain Rain Showers
2:21 PM 39.2 °F 35.9 °F 39.2 °F 100% 29.77 in 6.2 mi NNE 4.6 mph - N/A Rain Light Rain
2:25 PM 39.2 °F 37.0 °F 39.2 °F 100% 29.77 in 6.2 mi North 3.5 mph - N/A Rain Light Rain
2:32 PM 39.2 °F 37.0 °F 39.2 °F 100% 29.77 in 6.2 mi WNW 3.5 mph - N/A Rain Light Rain Showers
2:55 PM 41.0 °F 38.0 °F 39.2 °F 93% 29.77 in 6.2 mi West 4.6 mph - N/A Rain Light Rain
3:08 PM 42.8 °F - 41.0 °F 93% 29.77 in 6.2 mi SSW 2.3 mph - N/A Rain Light Rain
3:25 PM 42.8 °F 41.1 °F 41.0 °F 93% 29.77 in 6.2 mi SW 3.5 mph - N/A   Partly Cloudy
3:36 PM 42.8 °F 39.3 °F 41.0 °F 93% 29.77 in 6.2 mi West 5.8 mph - N/A   Mostly Cloudy
3:37 PM 44.6 °F 41.4 °F 41.0 °F 87% 29.77 in 6.2 mi West 5.8 mph - N/A   Mostly Cloudy
3:39 PM 44.6 °F 42.2 °F 41.0 °F 87% 29.77 in 6.2 mi West 4.6 mph - N/A   Mostly Cloudy
3:55 PM 44.6 °F - 39.2 °F 81% 29.77 in 6.2 mi West 2.3 mph - N/A   Scattered Clouds
4:21 PM 48.2 °F - 42.8 °F 82% 29.77 in 6.2 mi NNW 6.9 mph - N/A   Mostly Cloudy
4:25 PM 48.2 °F - 42.8 °F 82% 29.77 in 6.2 mi NNW 8.1 mph - N/A   Mostly Cloudy
4:29 PM 46.4 °F 42.4 °F 41.0 °F 81% 29.77 in 6.2 mi NW 8.1 mph - N/A Rain Light Rain
4:30 PM 46.4 °F 42.4 °F 41.0 °F 81% 29.77 in 6.2 mi NW 8.1 mph - N/A Rain Light Drizzle
4:49 PM 42.8 °F 36.2 °F 39.2 °F 87% 29.80 in 6.2 mi North 12.7 mph - N/A Rain Light Rain
4:54 PM 42.8 °F 36.6 °F 39.2 °F 87% 29.80 in 6.2 mi North 11.5 mph - N/A Rain Rain Showers
4:55 PM 42.8 °F 37.0 °F 39.2 °F 87% 29.80 in 6.2 mi North 10.4 mph - N/A Rain Rain Showers
5:00 PM 42 °F - 40 °F 89% 29.82 in 4 mi NNW 8.9 mph - - Rain Light Rain Showers
5:00 PM 42.8 °F 37.5 °F 39.2 °F 87% 29.80 in 2.5 mi NNW 9.2 mph - N/A Rain Rain
5:03 PM 42.8 °F 37.5 °F 39.2 °F 87% 29.80 in - NNW 9.2 mph - N/A Rain Rain
5:05 PM 42.8 °F 37.5 °F 41.0 °F 93% 29.80 in 3.1 mi NNW 9.2 mph - N/A Rain Heavy Rain
5:12 PM 41.0 °F 38.0 °F 39.2 °F 93% 29.80 in 5.0 mi North 4.6 mph - N/A Rain Rain Showers
5:21 PM 42.8 °F - 39.2 °F 87% 29.80 in 6.2 mi West 1.2 mph - N/A Rain Light Rain
5:25 PM 42.8 °F - 39.2 °F 87% 29.80 in 6.2 mi WSW 1.2 mph - N/A Rain Light Rain
5:35 PM 42.8 °F - 39.2 °F 87% 29.80 in 6.2 mi SSE 2.3 mph - N/A   Mostly Cloudy
5:38 PM 42.8 °F - 39.2 °F 87% 29.80 in 6.2 mi SSE 2.3 mph - N/A   Mostly Cloudy
5:55 PM 44.6 °F - 39.2 °F 81% 29.80 in 6.2 mi NE 2.3 mph - N/A   Mostly Cloudy
6:25 PM 44.6 °F - 39.2 °F 81% 29.80 in 6.2 mi West 2.3 mph - N/A   Overcast
6:55 PM 46.4 °F - 39.2 °F 76% 29.80 in 6.2 mi SW 2.3 mph - N/A   Scattered Clouds
7:02 PM 46.4 °F 45.2 °F 41.0 °F 81% 29.80 in 6.2 mi West 3.5 mph - N/A   Mostly Cloudy
7:12 PM 44.6 °F 43.1 °F 41.0 °F 87% 29.80 in 6.2 mi WSW 3.5 mph - N/A   Mostly Cloudy
7:25 PM 44.6 °F 42.2 °F 41.0 °F 87% 29.80 in 6.2 mi WSW 4.6 mph - N/A   Mostly Cloudy
7:38 PM 46.4 °F 43.5 °F 42.8 °F 87% 29.80 in 6.2 mi West 5.8 mph - N/A   Mostly Cloudy
7:47 PM 48.2 °F - 42.8 °F 82% 29.80 in 6.2 mi West 5.8 mph - N/A   Mostly Cloudy
7:55 PM 48.2 °F - 41.0 °F 76% 29.80 in 6.2 mi West 5.8 mph - N/A   Mostly Cloudy
8:00 PM 48 °F - 41 °F 70% 29.81 in 18 mi WNW 6.7 mph - - Thunderstorm Light Thunderstorm
8:25 PM 46.4 °F 42.9 °F 39.2 °F 76% 29.80 in 6.2 mi WNW 6.9 mph - N/A   Unknown
8:55 PM 46.4 °F 44.3 °F 37.4 °F 71% 29.80 in 6.2 mi West 4.6 mph - N/A   Mostly Cloudy
9:25 PM 44.6 °F 42.2 °F 39.2 °F 81% 29.80 in 6.2 mi West 4.6 mph - N/A   Mostly Cloudy
9:55 PM 41.0 °F 38.0 °F 37.4 °F 87% 29.83 in 6.2 mi West 4.6 mph - N/A   Unknown
10:25 PM 39.2 °F 35.9 °F 37.4 °F 93% 29.83 in 6.2 mi West 4.6 mph - N/A   Unknown
10:55 PM 39.2 °F 35.0 °F 37.4 °F 93% 29.83 in 6.2 mi West 5.8 mph - N/A   Unknown
11:00 PM 39 °F - 37 °F 89% 29.85 in 22 mi West 4.5 mph - -  
11:25 PM 37.4 °F 32.8 °F 35.6 °F 93% 29.83 in 6.2 mi WSW 5.8 mph - N/A   Partly Cloudy
11:37 PM 37.4 °F 32.8 °F 35.6 °F 93% 29.83 in 6.2 mi WSW 5.8 mph - N/A   Unknown
11:55 PM 37.4 °F 32.8 °F 35.6 °F 93% 29.83 in 6.2 mi WSW 5.8 mph - N/A   Unknown